Weather in Berestove

Ukraine / Zaporizhia Region     47°07′49″N   36°48′15″E
temp.,
°C
wind,
m/s
gust,
m/s
humid.,
%
clouds,
%
prec.,
mm/h
press.,
hPa
HPBL,
m
24 january, sun
sun2423:00+4s41093100 0.0 1018260
02:00+4s5119391 0.0 1017273
05:00+3sse599584 0.0 1017203
08:00+2se498892 0.0 1016174
11:00+3se5973100 0.0 1017280
14:00+3se5976100 0.0 1015280
17:00+1ese51283100 0.0 1014261
20:00+1se61384100 0.0 1014286
25 january, mon
mon2523:00+1se61386100 0.0 1014284
02:00+1ese5894100 0.4 1013200
05:00+1se599794 0.1 1013195
08:00+2se599890 0.1 1013210
11:00+8s5108435 0.0 1013462
14:00+9sse6117936 0.0 1011457
17:00+4se5119095 0.0 1011284
20:00+4se8178098 0.0 1009393
26 january, tue
tue2623:00+3se71669100 0.0 1008462
02:00+6s8169699 2.9 1007646
05:00+4sw6148767 1.1 1009548
08:00+3ssw5129162 1.1 1011348
11:00+6s597192 0.0 1012476
14:00+7sse6118096 0.0 1011610
17:00+6sse51592100 0.0 1010451
20:00+5sse61788100 0.0 1009573
27 january, wed
wed2723:00+6sse51096100 0.3 1009296
02:00+5se5995100 1.3 1008240
05:00+4se51094100 0.0 1006229
08:00+5ese61190100 0.1 1005263
11:00+8se81569100 0.0 1004602
14:00+8se81567100 0.0 1002657
17:00+5ese61378100 0.0 1001363
20:00+5se71681100 0.3 1001484
28 january, thu
thu2823:00+5se61192100 1.5 1000407
02:00+4ese61385100 1.6 1000297
05:00+4sw41094100 0.0 1001421
08:00+3sw61183100 0.0 1003648
11:00+3sw71067100 0.0 1004900
14:00+3wsw6865100 0.0 1005923
17:00+1wsw387397 0.0 1007306
20:000wsw487799 0.0 1009463